Location: Fouquenies
(49.4624°N, 2.0492°E)
Time: 01:00:19
(UTC+00:00)

NOAA 6 - Pass Details

Date: 03 February 2023
Orbit: 771 x 786 km, 98.7° (Epoch: 21 March)

Event Time Altitude Azimuth Distance (km) Brightness Sun altitude
Rises 17:46:20 0° 170° (S) 3,250 7.3 -9.4°
Reaches altitude 10° 17:48:39 10° 172° (S) 2,329 6.6 -9.7°
Maximum altitude 17:53:47 71° 257° (WSW) 831 4.4 -10.5°
Drops below altitude 10° 17:58:58 10° 341° (NNW) 2,355 6.6 -11.4°
Sets 18:01:19 0° 344° (NNW) 3,290 7.3 -11.7°
